Location: *
(37.9500°N, 27.3666°E)
Time: 04:45:35
(UTC+00:00)

X-37B - Pass Details

Date: 24 October 2021
Orbit: 330 x 341 km, 45.0° (Epoch: 20 November)

Event Time Altitude Azimuth Distance (km) Brightness Sun altitude
Rises 16:07:49 0° 300° (WNW) 2,126 5.3 -9.9°
Reaches altitude 10° 16:10:00 10° 313° (NW) 1,286 3.8 -10.3°
Maximum altitude 16:12:33 28° 15° (NNE) 679 1.6 -10.8°
Enters shadow 16:14:02 18° 63° (ENE) 927 1.9 -11.1°
